SCP
0 0 0 0 0 0 0 0 0 0 0 0 0 0 0 0 0 0 0 0 0 0 0 0 0 0 0 0 0 0 0 0 0 0 0 0 0 0 0 0 0 0 0
0 0 0 0 0 0 0 0 0 0 0 0 0 0 0 0 0 0 0 0 0 0 0 0 0 0 0 0 0 0 0 0 0 0 0 0 0 0 0 0 0 0 0
0 0 0 0 0 0 0 0 0 0 0 0 0 0 0 0 0 0 0 0 0 0 0 0 0 0 0 0 0 0 0 0 0 0 0 0 0 0 0 0 0 0 0
0 0 0 0 0 0 0 0 0 0 0 0 0 0 0 0 0 0 0 0 0 0 0 0 0 0 0 0 0 0 0 0 0 0 0 0 0 0 0 0 0 0 0
0 0 0 0 0 0 0 0 0 0 0 0 0 0 -0 0 0 0 0 0 0 0 0 0 0 0 0 0 0 0 0 0 0 0 0 0 0 0 0 0 0 0 0
0 0 0 0 0 0 0 0 0 0 0 0 0 0 0 -0 0 0 0 0 0 0 0 0 0 0 0 0 0 0 0 0 0 0 0 0 0 0 0 0 0 0 0
0 0 0 0 0 0 0 0 0 0 0 0 0 0 0 0 0 0 0 0 0 0 0 0 0 0 0 0 0 0 0 0 0 0 0 0 0 0 0 0 0 0 0
0 0 0 0 0 0 0 0 0 0 0 0 0 0 0 0 0 0 0 0 0 0 0 0 0 0 0 0 0 0 0 0 0 0 0 0 0 0 0 0 0 0 0
0 0 0 0 0 0 0 0 0 0 0 0 0 0 0 0 0 0 0 0 0 0 0 0 0 0 0 0 0 0 0 0 0 0 0 0 0 0 0 0 0 0 0
0 0 0 0 0 0 0 0 0 0 0 0 0 0 0 0 0 0 0 0 0 0 0 0 0 0 0 0 0 0 0 0 0 0 0 0 0 0 0 0 0 0 0
0 0 0 0 0 0 0 0 0 0 0 0 0 0 0 0 0 0 0 0 0 0 0 0 0 0 0 0 0 0 0 0 0 0 0 0 0 0 0 0 0 0 0
0 0 0 0 0 0 0 0 0 0 0 0 0 0 0 0 0 0 0 0 0 0 0 0 0 -0 0 0 0 0 0 0 0 0 0 0 0 0 0 0 0 0 0
0 0 0 0 0 0 0 0 0 0 0 0 0 0 0 0 0 0 0 0 0 0 0 0 0 -0 -0 0 0 0 0 0 0 0 0 0 0 0 0 0 0 0 0
0 0 0 0 0 0 0 0 0 0 0 0 0 0 0 0 0 0 0 0 0 0 0 0 0 0 -0 0 0 0 0 0 0 0 0 0 0 0 0 0 0 0 0
0 0 0 0 0 0 0 0 0 0 0 0 0 0 0 0 0 0 0 0 0 0 0 0 0 0 0 0 0 0 0 0 0 0 0 0 0 0 0 0 0 0 0
0 0 0 0 0 0 0 0 0 0 0 0 0 0 0 0 0 0 0 0 0 0 0 0 0 0 0 0 0 0 0 0 0 0 0 0 0 0 0 0 0 0 0
0 0 0 0 0 0 0 0 0 0 0 0 0 0 0 0 0 0 0 0 0 0 0 0 0 0 0 0 0 0 0 0 0 0 0 0 0 0 0 0 0 0 0
0 0 0 0 0 0 0 0 0 0 0 0 0 0 0 0 0 0 0 0 0 0 0 0 0 0 0 0 0 0 0 0 0 0 0 0 0 0 0 0 0 0 0
0 0 0 0 0 0 0 0 0 0 0 0 0 0 0 0 0 0 0 0 0 0 0 0 0 0 0 0 0 0 0 0 0 0 0 0 0 0 0 0 0 0 0
0 0 0 0 0 0 0 0 0 0 0 0 0 0 0 0 0 0 0 0 0 0 0 0 0 0 0 0 0 0 0 0 0 0 0 0 0 0 0 0 0 0 0
0 0 0 0 0 0 0 0 0 0 0 0 0 0 0 0 0 0 0 0 0 0 0 0 0 0 0 0 0 0 0 0 0 0 0 0 0 0 0 0 0 0 0
0 0 0 0 0 0 0 0 0 0 0 0 0 0 0 0 0 0 0 0 0 0 0 0 0 0 0 0 0 0 0 0 0 0 0 0 0 0 0 0 0 0 0
0 0 0 0 0 0 0 0 0 0 0 0 0 0 0 0 0 0 0 0 0 0 0 0 0 0 0 0 0 0 0 0 0 0 0 0 0 0 0 0 0 0 0
0 0 0 0 0 0 0 0 0 0 0 0 0 0 0 0 0 0 0 0 0 0 0 0 0 0 0 0 0 0 0 0 0 0 0 0 0 0 0 0 0 0 0
0 0 0 0 0 0 0 0 0 0 0 0 0 0 0 0 0 0 0 0 0 0 0 0 0 0 0 0 0 0 0 0 0 0 0 0 0 0 0 0 0 0 0
0 0 0 0 0 0 0 0 0 0 0 0 0 0 0 0 0 0 0 0 0 0 0 0 0 0 0 0 0 0 0 0 0 0 0 0 0 0 0 0 0 0 0
Wind_Speed
1 1 1 1 2 2 2 2 2 2 2 2 2 2 2 2 2 2 2 6 6 6 5 4 4 5 5 4 4 3 2 2 2 2 2 3 3 3 4 4 5 5 6
1 1 1 1 1 1 1 1 1 2 2 1 2 2 1 1 2 2 2 4 6 6 5 5 5 4 4 4 4 4 4 3 3 3 3 3 4 4 4 4 5 5 6
1 1 1 1 1 1 1 1 2 2 2 2 2 2 1 1 1 1 2 2 3 5 6 5 5 4 4 4 4 4 4 4 4 4 4 3 4 4 5 5 5 6 6
1 1 1 1 1 1 1 1 1 1 1 2 2 2 2 2 1 1 1 1 1 2 4 6 6 5 5 4 4 5 4 4 4 4 4 4 4 4 4 5 6 6 6
1 1 0 0 0 1 1 1 1 1 1 1 1 2 2 1 1 1 0 1 1 1 2 4 6 6 5 5 5 5 5 5 4 5 4 4 4 5 5 5 5 6 7
0 1 0 0 0 1 1 1 0 1 0 1 1 2 2 2 1 1 1 0 1 1 1 2 2 3 6 5 5 5 5 5 5 5 5 4 4 5 5 5 6 6 7
1 1 0 0 1 1 1 1 0 1 1 1 1 2 2 1 1 1 1 0 1 1 1 1 1 1 2 5 6 6 6 6 5 6 6 5 5 5 6 6 6 6 7
1 1 1 1 1 1 0 1 1 0 0 0 0 1 2 3 2 1 1 1 1 1 1 1 1 1 1 1 4 6 6 6 6 6 6 7 6 6 6 6 6 7 8
2 1 2 2 2 2 2 2 2 2 1 1 0 1 1 2 2 2 1 1 1 1 1 1 1 1 1 1 2 4 6 7 7 7 7 7 8 8 7 7 7 8 8
2 2 2 2 2 2 2 2 2 2 2 2 1 1 1 1 1 2 2 1 1 1 1 1 1 1 1 1 2 5 6 7 8 8 8 8 8 8 8 8 8 8 9
2 2 2 2 2 2 2 2 2 2 2 3 2 1 1 1 1 2 3 2 2 2 2 2 2 1 1 1 2 4 6 6 7 8 8 8 9 9 9 8 9 8 9
1 2 2 2 2 2 3 3 3 3 3 3 2 2 2 2 2 2 2 2 3 3 2 2 2 2 2 2 3 6 6 6 7 8 8 9 9 9 9 9 9 9 9
2 3 2 2 2 3 3 3 3 3 4 4 4 3 2 2 2 2 2 2 2 2 2 2 2 2 2 1 2 6 5 7 7 7 8 8 8 9 9 9 10 10 10
4 3 3 3 3 3 3 3 3 4 3 4 4 4 3 2 2 2 2 2 2 2 2 3 1 2 2 2 3 5 3 7 7 7 8 8 8 8 9 9 9 10 10
3 3 4 3 3 3 3 3 3 4 3 4 4 4 3 2 2 2 2 3 3 3 3 2 2 2 2 2 4 3 3 6 8 8 8 7 7 8 8 8 9 9 10
3 4 4 4 3 3 3 4 3 3 4 3 3 3 3 2 2 2 3 3 3 3 3 2 2 2 3 3 5 3 3 7 7 8 8 8 7 8 8 8 9 9 10
4 4 4 4 4 4 4 4 4 4 4 3 3 4 4 3 3 2 2 2 3 3 4 3 2 2 2 3 4 3 3 3 4 7 8 8 8 8 8 8 8 9 9
4 4 4 4 4 4 4 5 5 5 5 5 5 4 5 3 3 3 3 3 3 3 4 4 3 2 3 3 3 4 4 3 3 6 7 7 7 8 8 8 8 8 8
3 4 4 5 5 5 5 5 5 5 5 5 5 5 5 4 4 3 3 3 3 3 3 3 4 2 2 2 3 3 3 3 3 4 6 6 7 8 8 8 8 7 7
4 4 4 5 5 5 5 5 5 5 5 5 5 5 5 5 6 5 4 4 3 3 3 3 4 3 2 2 2 3 3 2 3 3 4 5 6 7 7 7 7 6 6
4 4 4 4 4 4 5 5 5 5 5 5 5 5 5 6 6 5 4 4 4 3 3 3 3 3 2 2 2 2 3 3 3 2 1 2 3 2 3 5 6 6 6
3 3 4 4 4 4 6 7 6 5 5 5 5 5 5 5 6 8 8 7 5 4 4 4 3 4 4 3 2 2 2 2 3 1 1 3 1 2 2 2 5 7 6
3 3 4 4 5 5 7 7 7 5 4 5 5 4 4 4 5 4 6 7 6 7 7 5 5 5 4 4 3 3 3 2 3 2 1 3 1 2 3 4 7 5 5
3 3 4 4 4 5 6 7 6 4 4 5 5 5 5 4 4 5 4 4 5 5 6 5 5 5 4 3 4 4 3 2 2 2 1 2 2 3 3 3 5 4 5
3 3 3 3 4 4 6 6 5 3 3 4 4 4 4 5 6 6 4 4 4 4 5 6 5 5 5 4 2 1 1 1 2 2 1 1 2 3 3 2 3 5 6
3 3 3 3 3 4 5 5 4 2 3 3 3 3 5 6 7 6 4 4 5 4 3 2 3 4 3 3 3 3 3 2 1 2 1 1 1 2 3 2 2 2 3
Wind_Direction
54 41 38 39 36 40 44 35 33 30 31 35 34 35 31 31 25 18 4 19 22 29 33 33 31 28 34 45 43 33 20 14 18 30 29 28 21 15 10 5 4 5 358
74 57 42 38 29 38 52 54 30 26 19 22 21 17 12 13 23 27 16 6 15 24 28 27 19 14 17 27 31 21 10 8 14 14 17 21 18 13 4 354 354 355 350
71 67 55 36 10 28 57 65 47 43 34 22 10 1 3 12 18 26 25 11 359 12 21 21 12 3 1 9 11 10 11 7 4 360 359 3 1 359 357 354 349 346 341
79 86 69 3 352 40 69 72 60 41 30 16 359 350 349 357 355 359 29 29 12 3 4 14 6 360 355 358 358 358 353 354 354 352 348 346 344 343 339 339 339 339 339
100 111 118 336 23 62 53 62 47 39 21 2 342 336 335 323 316 326 1 31 26 12 357 358 358 356 355 354 354 350 345 339 341 348 345 336 331 332 330 329 327 330 333
98 117 123 71 81 85 49 62 83 32 16 334 339 335 318 302 307 303 278 311 348 353 4 355 347 345 357 358 356 346 338 332 339 338 337 328 319 320 319 320 323 325 328
148 150 176 159 141 163 202 174 121 58 357 351 359 332 317 296 288 289 278 295 318 311 355 347 346 360 347 359 357 349 342 335 334 334 332 322 315 316 316 320 322 324 324
186 189 190 203 191 174 170 184 159 151 336 10 109 360 325 325 328 318 307 271 294 315 331 332 337 346 347 342 343 346 336 328 325 324 325 324 322 318 317 317 318 317 319
204 204 207 205 197 188 201 209 193 182 208 264 265 166 183 252 311 310 292 297 303 312 295 281 273 297 308 318 317 330 332 326 322 322 322 321 318 314 313 317 314 315 316
214 214 214 213 206 199 199 214 215 204 187 210 244 259 223 199 214 300 308 311 308 298 284 290 290 284 285 291 318 324 328 324 319 319 317 318 316 313 311 311 312 312 312
225 221 218 214 214 208 204 205 213 213 203 204 202 210 218 252 218 211 275 302 313 289 273 264 258 266 281 286 285 304 320 318 314 313 314 316 317 316 312 313 312 308 309
245 234 217 217 220 217 214 214 213 210 214 212 212 205 194 198 210 202 236 274 288 290 290 272 251 251 258 274 297 314 315 317 316 317 316 317 315 315 316 313 313 311 309
243 239 227 220 222 223 218 213 212 221 215 210 214 221 218 220 212 211 220 251 271 292 296 284 260 257 270 279 290 317 316 319 319 318 317 317 316 315 314 312 312 311 308
233 228 223 220 224 222 221 217 220 227 220 219 223 219 222 222 211 215 207 206 273 283 273 270 277 250 265 277 298 318 304 313 311 313 314 313 313 313 312 312 312 310 310
229 218 216 219 225 222 216 214 227 230 224 223 225 223 225 223 214 225 222 209 208 252 267 252 254 271 274 276 299 290 285 297 307 309 309 310 310 310 310 310 309 308 306
226 219 220 220 223 224 219 216 229 228 222 230 228 227 228 226 221 219 222 229 220 222 252 253 255 281 291 298 301 293 279 302 303 304 306 307 307 307 305 304 305 305 303
221 219 222 221 223 227 222 220 229 225 224 234 235 231 236 224 219 222 222 226 231 219 248 273 264 274 277 291 299 289 280 274 281 298 304 305 306 304 301 302 305 302 301
227 226 226 226 227 230 222 218 226 225 223 227 231 229 237 232 223 223 220 225 235 229 232 268 278 269 264 269 280 288 292 288 275 290 301 304 305 305 304 303 302 301 299
232 231 226 228 229 229 223 222 223 225 226 228 229 228 231 224 228 225 223 226 233 243 232 247 272 270 270 270 288 292 286 281 290 293 299 301 302 308 309 310 305 308 307
232 233 234 235 231 230 225 224 223 226 230 231 229 230 229 226 229 225 228 230 227 236 239 241 259 269 264 269 269 282 297 298 297 294 298 302 303 308 310 313 310 314 315
245 241 241 245 237 232 227 223 221 221 224 230 233 233 235 237 243 238 235 230 220 226 233 240 250 263 261 260 260 263 285 304 296 267 291 296 301 299 301 305 311 310 312
257 256 251 245 240 242 240 235 229 223 221 223 231 238 239 236 246 249 248 245 233 226 229 234 242 246 251 248 248 256 275 304 299 271 296 297 290 289 294 286 298 306 308
250 253 254 247 245 247 243 239 236 229 224 226 229 235 244 244 245 241 248 251 248 245 237 231 236 239 244 239 230 248 250 258 264 263 288 290 294 290 292 297 304 302 308
251 250 252 248 253 252 245 241 240 234 232 234 235 234 236 244 244 243 237 240 245 247 247 240 237 243 244 237 222 225 231 262 273 266 253 278 289 290 301 295 293 297 313
269 261 255 251 247 256 253 245 242 231 236 245 246 240 236 240 249 250 239 241 250 257 260 257 260 263 261 258 242 202 211 244 282 268 227 248 280 301 297 291 294 310 318
267 268 264 253 244 250 255 250 240 225 232 244 250 250 249 254 258 253 236 237 250 256 255 263 263 268 253 235 236 210 203 220 264 271 230 236 257 317 309 295 304 314 319